Time,TemperatureF,DewpointF,PressureIn,WindDirection,WindDirectionDegrees,WindSpeedMPH,WindSpeedGustMPH,Humidity,HourlyPrecipIn,Conditions,Clouds,dailyrainin,SoftwareType,DateUTC
2013-02-18 00:04:00,33.9,26.2,30.07,ESE,110,3.0,5.0,73,0.00,,,0.00,Wunderground v.1.15,2013-02-18 06:04:00,
2013-02-18 00:10:00,33.8,26.1,30.07,SE,134,2.0,2.0,73,0.00,,,0.00,Wunderground v.1.15,2013-02-18 06:10:00,
2013-02-18 00:15:00,33.7,26.0,30.06,ESE,111,2.0,6.0,73,0.00,,,0.00,Wunderground v.1.15,2013-02-18 06:15:00,
2013-02-18 00:20:00,33.9,26.2,30.06,ESE,107,3.0,4.0,73,0.00,,,0.00,Wunderground v.1.15,2013-02-18 06:20:00,
2013-02-18 00:25:00,33.9,26.2,30.06,ESE,115,3.0,5.0,73,0.00,,,0.00,Wunderground v.1.15,2013-02-18 06:25:00,
2013-02-18 00:31:00,34.1,26.3,30.06,SSE,150,3.0,3.0,73,0.00,,,0.00,Wunderground v.1.15,2013-02-18 06:31:00,
2013-02-18 00:36:00,34.2,26.1,30.06,ESE,119,3.0,5.0,72,0.00,,,0.00,Wunderground v.1.15,2013-02-18 06:36:00,
2013-02-18 00:41:00,34.1,26.3,30.05,SE,146,3.0,5.0,73,0.00,,,0.00,Wunderground v.1.15,2013-02-18 06:41:00,
2013-02-18 00:46:00,34.1,26.3,30.05,SE,126,3.0,5.0,73,0.00,,,0.00,Wunderground v.1.15,2013-02-18 06:46:00,
2013-02-18 00:52:00,34.0,26.3,30.05,ESE,119,2.0,3.0,73,0.00,,,0.00,Wunderground v.1.15,2013-02-18 06:52:00,
2013-02-18 00:57:00,34.1,26.3,30.05,South,173,3.0,3.0,73,0.00,,,0.00,Wunderground v.1.15,2013-02-18 06:57:00,
2013-02-18 01:03:00,34.3,26.2,30.04,SSE,148,3.0,11.0,72,0.00,,,0.00,Wunderground v.1.15,2013-02-18 07:03:00,
2013-02-18 01:08:00,34.3,26.2,30.04,SE,124,3.0,11.0,72,0.00,,,0.00,Wunderground v.1.15,2013-02-18 07:08:00,
2013-02-18 01:13:00,34.3,26.2,30.03,ESE,118,3.0,4.0,72,0.00,,,0.00,Wunderground v.1.15,2013-02-18 07:13:00,
2013-02-18 01:19:00,34.3,26.5,30.03,SE,129,3.0,4.0,73,0.00,,,0.00,Wunderground v.1.15,2013-02-18 07:19:00,
2013-02-18 01:24:00,34.4,26.3,30.03,ESE,111,3.0,3.0,72,0.00,,,0.00,Wunderground v.1.15,2013-02-18 07:24:00,
2013-02-18 01:29:00,34.3,26.5,30.03,ESE,120,2.0,6.0,73,0.00,,,0.00,Wunderground v.1.15,2013-02-18 07:29:00,
2013-02-18 01:34:00,34.3,26.5,30.03,SE,125,2.0,5.0,73,0.00,,,0.00,Wunderground v.1.15,2013-02-18 07:34:00,
2013-02-18 01:40:00,34.2,26.4,30.03,ESE,122,2.0,3.0,73,0.00,,,0.00,Wunderground v.1.15,2013-02-18 07:40:00,
2013-02-18 01:45:00,34.4,26.3,30.03,SE,126,3.0,5.0,72,0.00,,,0.00,Wunderground v.1.15,2013-02-18 07:45:00,
2013-02-18 01:50:00,34.4,26.6,30.02,SE,127,3.0,3.0,73,0.00,,,0.00,Wunderground v.1.15,2013-02-18 07:50:00,
2013-02-18 01:55:00,34.2,26.4,30.02,ESE,117,2.0,3.0,73,0.00,,,0.00,Wunderground v.1.15,2013-02-18 07:55:00,
2013-02-18 02:00:00,34.1,26.7,30.02,ESE,120,2.0,2.0,74,0.00,,,0.00,Wunderground v.1.15,2013-02-18 08:00:00,
2013-02-18 02:06:00,33.9,26.5,30.02,SE,134,2.0,3.0,74,0.00,,,0.00,Wunderground v.1.15,2013-02-18 08:06:00,
2013-02-18 02:11:00,33.7,26.6,30.02,ESE,110,2.0,3.0,75,0.00,,,0.00,Wunderground v.1.15,2013-02-18 08:11:00,
2013-02-18 02:16:00,33.9,26.5,30.02,ESE,113,2.0,3.0,74,0.00,,,0.00,Wunderground v.1.15,2013-02-18 08:16:00,
2013-02-18 02:22:00,34.1,26.7,30.02,ESE,110,2.0,2.0,74,0.00,,,0.00,Wunderground v.1.15,2013-02-18 08:22:00,
2013-02-18 02:27:00,34.1,26.7,30.01,East,95,2.0,3.0,74,0.00,,,0.00,Wunderground v.1.15,2013-02-18 08:27:00,
2013-02-18 02:32:00,34.3,26.5,30.01,SW,225,2.0,2.0,73,0.00,,,0.00,Wunderground v.1.15,2013-02-18 08:32:00,
2013-02-18 02:38:00,34.3,26.9,30.01,ESE,110,2.0,3.0,74,0.00,,,0.00,Wunderground v.1.15,2013-02-18 08:38:00,
2013-02-18 02:43:00,34.2,26.8,30.01,SE,140,2.0,4.0,74,0.00,,,0.00,Wunderground v.1.15,2013-02-18 08:43:00,
2013-02-18 02:49:00,34.5,27.1,30.01,ESE,110,2.0,4.0,74,0.00,,,0.00,Wunderground v.1.15,2013-02-18 08:49:00,
2013-02-18 02:54:00,34.8,27.0,30.00,East,98,2.0,2.0,73,0.00,,,0.00,Wunderground v.1.15,2013-02-18 08:54:00,
2013-02-18 02:59:00,34.9,27.5,30.00,SE,136,1.0,2.0,74,0.00,,,0.00,Wunderground v.1.15,2013-02-18 08:59:00,
2013-02-18 03:05:00,35.1,27.3,30.00,SE,146,2.0,5.0,73,0.00,,,0.00,Wunderground v.1.15,2013-02-18 09:05:00,
2013-02-18 03:10:00,35.5,27.4,30.00,East,95,2.0,2.0,72,0.00,,,0.00,Wunderground v.1.15,2013-02-18 09:10:00,
2013-02-18 03:16:00,35.5,27.4,30.00,SE,125,2.0,3.0,72,0.00,,,0.00,Wunderground v.1.15,2013-02-18 09:16:00,
2013-02-18 03:21:00,35.4,27.6,30.00,East,98,1.0,1.0,73,0.00,,,0.00,Wunderground v.1.15,2013-02-18 09:21:00,
2013-02-18 03:26:00,35.4,27.3,30.00,ESE,110,1.0,3.0,72,0.00,,,0.00,Wunderground v.1.15,2013-02-18 09:26:00,
2013-02-18 03:32:00,35.3,27.2,30.00,West,259,1.0,6.0,72,0.00,,,0.00,Wunderground v.1.15,2013-02-18 09:32:00,
2013-02-18 03:37:00,35.1,27.3,29.99,East,93,1.0,6.0,73,0.00,,,0.00,Wunderground v.1.15,2013-02-18 09:37:00,
2013-02-18 03:42:00,35.3,27.5,29.99,SE,134,1.0,2.0,73,0.00,,,0.00,Wunderground v.1.15,2013-02-18 09:42:00,
2013-02-18 03:48:00,35.5,27.4,29.99,SE,134,2.0,2.0,72,0.00,,,0.00,Wunderground v.1.15,2013-02-18 09:48:00,
2013-02-18 03:53:00,35.4,27.3,29.99,East,86,2.0,2.0,72,0.00,,,0.00,Wunderground v.1.15,2013-02-18 09:53:00,
2013-02-18 03:58:00,35.1,27.3,29.99,East,87,1.0,3.0,73,0.00,,,0.00,Wunderground v.1.15,2013-02-18 09:58:00,
2013-02-18 04:04:00,34.8,27.4,29.99,East,94,1.0,1.0,74,0.00,,,0.00,Wunderground v.1.15,2013-02-18 10:04:00,
2013-02-18 04:09:00,34.7,27.6,29.99,East,91,0.0,1.0,75,0.00,,,0.00,Wunderground v.1.15,2013-02-18 10:09:00,
2013-02-18 04:14:00,34.7,27.3,30.00,SE,146,1.0,2.0,74,0.00,,,0.00,Wunderground v.1.15,2013-02-18 10:14:00,
2013-02-18 04:20:00,34.7,27.6,29.99,ESE,122,1.0,1.0,75,0.00,,,0.00,Wunderground v.1.15,2013-02-18 10:20:00,
2013-02-18 04:25:00,34.8,27.7,29.99,East,101,1.0,2.0,75,0.00,,,0.00,Wunderground v.1.15,2013-02-18 10:25:00,
2013-02-18 04:30:00,34.7,27.6,29.99,ESE,108,1.0,1.0,75,0.00,,,0.00,Wunderground v.1.15,2013-02-18 10:30:00,
2013-02-18 04:35:00,34.8,27.7,29.99,ESE,102,1.0,3.0,75,0.00,,,0.00,Wunderground v.1.15,2013-02-18 10:35:00,
2013-02-18 04:41:00,35.0,27.9,29.99,SE,143,1.0,1.0,75,0.00,,,0.00,Wunderground v.1.15,2013-02-18 10:41:00,
2013-02-18 04:46:00,34.9,27.8,29.99,SE,137,1.0,2.0,75,0.00,,,0.00,Wunderground v.1.15,2013-02-18 10:46:00,
2013-02-18 04:51:00,35.0,27.9,29.99,East,98,1.0,4.0,75,0.00,,,0.00,Wunderground v.1.15,2013-02-18 10:51:00,
2013-02-18 04:57:00,34.9,27.8,29.99,ESE,110,1.0,4.0,75,0.00,,,0.00,Wunderground v.1.15,2013-02-18 10:57:00,
2013-02-18 05:03:00,34.8,28.0,29.99,SW,219,1.0,1.0,76,0.00,,,0.00,Wunderground v.1.15,2013-02-18 11:03:00,
2013-02-18 05:08:00,34.9,28.1,29.99,SW,235,1.0,5.0,76,0.00,,,0.00,Wunderground v.1.15,2013-02-18 11:08:00,
2013-02-18 05:14:00,35.0,28.2,29.99,South,190,1.0,5.0,76,0.00,,,0.00,Wunderground v.1.15,2013-02-18 11:14:00,
2013-02-18 05:19:00,35.0,28.5,29.98,East,92,1.0,5.0,77,0.00,,,0.00,Wunderground v.1.15,2013-02-18 11:19:00,
2013-02-18 05:24:00,35.0,28.2,29.98,East,92,1.0,2.0,76,0.00,,,0.00,Wunderground v.1.15,2013-02-18 11:24:00,
2013-02-18 05:29:00,35.0,28.5,29.98,ESE,102,1.0,2.0,77,0.00,,,0.00,Wunderground v.1.15,2013-02-18 11:29:00,
2013-02-18 05:35:00,34.9,28.4,29.98,ENE,77,1.0,2.0,77,0.00,,,0.00,Wunderground v.1.15,2013-02-18 11:35:00,
2013-02-18 05:40:00,34.9,28.4,29.98,East,89,1.0,1.0,77,0.00,,,0.00,Wunderground v.1.15,2013-02-18 11:40:00,
2013-02-18 05:46:00,34.8,28.6,29.98,SE,141,1.0,3.0,78,0.00,,,0.00,Wunderground v.1.15,2013-02-18 11:46:00,
2013-02-18 05:51:00,34.6,28.8,29.97,East,86,1.0,1.0,79,0.00,,,0.00,Wunderground v.1.15,2013-02-18 11:51:00,
2013-02-18 05:56:00,34.5,28.7,29.97,East,82,0.0,1.0,79,0.00,,,0.00,Wunderground v.1.15,2013-02-18 11:56:00,
2013-02-18 06:02:00,34.5,29.0,29.97,ESE,120,1.0,1.0,80,0.00,,,0.00,Wunderground v.1.15,2013-02-18 12:02:00,
2013-02-18 06:07:00,34.6,29.1,29.97,East,93,1.0,2.0,80,0.00,,,0.00,Wunderground v.1.15,2013-02-18 12:07:00,
2013-02-18 06:12:00,34.7,29.2,29.97,ESE,117,1.0,2.0,80,0.00,,,0.00,Wunderground v.1.15,2013-02-18 12:12:00,
2013-02-18 06:18:00,34.7,29.2,29.96,ESE,112,1.0,3.0,80,0.00,,,0.00,Wunderground v.1.15,2013-02-18 12:18:00,
2013-02-18 06:23:00,34.8,29.3,29.96,ENE,71,1.0,4.0,80,0.00,,,0.00,Wunderground v.1.15,2013-02-18 12:23:00,
2013-02-18 06:28:00,35.0,29.8,29.96,SSE,167,1.0,4.0,81,0.00,,,0.00,Wunderground v.1.15,2013-02-18 12:28:00,
2013-02-18 06:34:00,35.2,30.0,29.96,SSE,165,1.0,1.0,81,0.00,,,0.00,Wunderground v.1.15,2013-02-18 12:34:00,
2013-02-18 06:39:00,35.3,30.1,29.96,East,101,1.0,1.0,81,0.00,,,0.00,Wunderground v.1.15,2013-02-18 12:39:00,
2013-02-18 06:44:00,35.7,30.4,29.96,SE,136,1.0,3.0,81,0.00,,,0.00,Wunderground v.1.15,2013-02-18 12:44:00,
2013-02-18 06:49:00,36.0,30.7,29.95,ENE,70,2.0,3.0,81,0.00,,,0.00,Wunderground v.1.15,2013-02-18 12:49:00,
2013-02-18 06:55:00,36.2,30.9,29.96,WSW,243,1.0,3.0,81,0.00,,,0.00,Wunderground v.1.15,2013-02-18 12:55:00,
2013-02-18 07:00:00,36.4,31.1,29.96,ESE,119,1.0,1.0,81,0.00,,,0.00,Wunderground v.1.15,2013-02-18 13:00:00,
2013-02-18 07:06:00,36.7,31.4,29.96,SW,235,1.0,4.0,81,0.00,,,0.00,Wunderground v.1.15,2013-02-18 13:06:00,
2013-02-18 07:11:00,37.1,31.8,29.96,SE,125,1.0,1.0,81,0.00,,,0.00,Wunderground v.1.15,2013-02-18 13:11:00,
2013-02-18 07:16:00,37.5,32.2,29.96,SE,141,1.0,1.0,81,0.00,,,0.00,Wunderground v.1.15,2013-02-18 13:16:00,
2013-02-18 07:22:00,37.9,32.6,29.96,East,90,1.0,4.0,81,0.00,,,0.00,Wunderground v.1.15,2013-02-18 13:22:00,
2013-02-18 07:27:00,38.3,33.0,29.96,SSW,200,1.0,4.0,81,0.00,,,0.00,Wunderground v.1.15,2013-02-18 13:27:00,
2013-02-18 07:32:00,38.8,33.2,29.96,South,181,1.0,3.0,80,0.00,,,0.00,Wunderground v.1.15,2013-02-18 13:32:00,
2013-02-18 07:37:00,39.2,33.5,29.96,West,260,1.0,3.0,80,0.00,,,0.00,Wunderground v.1.15,2013-02-18 13:37:00,
2013-02-18 07:42:00,39.7,34.3,29.96,East,89,1.0,4.0,81,0.00,,,0.00,Wunderground v.1.15,2013-02-18 13:42:00,
2013-02-18 07:48:00,40.4,35.0,29.96,SSE,151,1.0,5.0,81,0.00,,,0.00,Wunderground v.1.15,2013-02-18 13:48:00,
2013-02-18 07:53:00,41.2,35.5,29.96,ESE,110,2.0,7.0,80,0.00,,,0.00,Wunderground v.1.15,2013-02-18 13:53:00,
2013-02-18 07:58:00,42.0,36.0,29.95,SE,145,2.0,7.0,79,0.00,,,0.00,Wunderground v.1.15,2013-02-18 13:58:00,
2013-02-18 08:04:00,42.6,36.2,29.95,SE,124,2.0,2.0,78,0.00,,,0.00,Wunderground v.1.15,2013-02-18 14:04:00,
2013-02-18 08:09:00,43.0,36.3,29.95,ESE,120,2.0,7.0,77,0.00,,,0.00,Wunderground v.1.15,2013-02-18 14:09:00,
2013-02-18 08:14:00,43.3,36.6,29.95,SE,142,3.0,5.0,77,0.00,,,0.00,Wunderground v.1.15,2013-02-18 14:14:00,
2013-02-18 08:19:00,43.7,37.0,29.95,East,89,3.0,8.0,77,0.00,,,0.00,Wunderground v.1.15,2013-02-18 14:19:00,
2013-02-18 08:24:00,44.2,37.4,29.95,SE,142,3.0,5.0,77,0.00,,,0.00,Wunderground v.1.15,2013-02-18 14:24:00,
2013-02-18 08:30:00,45.0,38.2,29.95,SE,141,3.0,7.0,77,0.00,,,0.00,Wunderground v.1.15,2013-02-18 14:30:00,
2013-02-18 08:35:00,46.0,38.9,29.95,ESE,113,3.0,10.0,76,0.00,,,0.00,Wunderground v.1.15,2013-02-18 14:35:00,
2013-02-18 08:41:00,46.8,39.3,29.95,SSE,152,4.0,5.0,75,0.00,,,0.00,Wunderground v.1.15,2013-02-18 14:41:00,
2013-02-18 08:46:00,47.3,39.4,29.94,SW,231,5.0,7.0,74,0.00,,,0.00,Wunderground v.1.15,2013-02-18 14:46:00,
2013-02-18 08:51:00,47.7,39.8,29.94,SSW,211,6.0,7.0,74,0.00,,,0.00,Wunderground v.1.15,2013-02-18 14:51:00,
2013-02-18 08:56:00,48.0,40.1,29.94,West,274,5.0,8.0,74,0.00,,,0.00,Wunderground v.1.15,2013-02-18 14:56:00,
2013-02-18 09:02:00,48.3,40.4,29.94,SW,228,4.0,6.0,74,0.00,,,0.00,Wunderground v.1.15,2013-02-18 15:02:00,
2013-02-18 09:07:00,48.6,40.7,29.94,West,271,5.0,8.0,74,0.00,,,0.00,Wunderground v.1.15,2013-02-18 15:07:00,
2013-02-18 09:12:00,49.0,41.4,29.94,South,184,4.0,6.0,75,0.00,,,0.00,Wunderground v.1.15,2013-02-18 15:12:00,
2013-02-18 09:18:00,49.5,41.6,29.93,SW,219,5.0,12.0,74,0.00,,,0.00,Wunderground v.1.15,2013-02-18 15:18:00,
2013-02-18 09:23:00,50.0,42.0,29.93,SSW,208,6.0,6.0,74,0.00,,,0.00,Wunderground v.1.15,2013-02-18 15:23:00,
2013-02-18 09:28:00,50.3,42.3,29.93,WSW,250,4.0,8.0,74,0.00,,,0.00,Wunderground v.1.15,2013-02-18 15:28:00,
2013-02-18 09:33:00,50.5,42.5,29.92,SW,224,5.0,13.0,74,0.00,,,0.00,Wunderground v.1.15,2013-02-18 15:33:00,
2013-02-18 09:39:00,50.6,42.6,29.92,WNW,301,5.0,13.0,74,0.00,,,0.00,Wunderground v.1.15,2013-02-18 15:39:00,
2013-02-18 09:44:00,50.9,43.3,29.92,SSW,207,4.0,9.0,75,0.00,,,0.00,Wunderground v.1.15,2013-02-18 15:44:00,
2013-02-18 09:49:00,51.3,43.6,29.92,SW,214,4.0,9.0,75,0.00,,,0.00,Wunderground v.1.15,2013-02-18 15:49:00,
2013-02-18 09:54:00,52.0,43.6,29.91,South,177,5.0,11.0,73,0.00,,,0.00,Wunderground v.1.15,2013-02-18 15:54:00,
2013-02-18 10:00:00,52.2,44.2,29.91,ESE,103,5.0,5.0,74,0.00,,,0.00,Wunderground v.1.15,2013-02-18 16:00:00,
2013-02-18 10:06:00,52.4,44.4,29.92,NE,36,3.0,5.0,74,0.00,,,0.00,Wunderground v.1.15,2013-02-18 16:06:00,
2013-02-18 10:12:00,52.4,44.4,29.92,SE,138,5.0,5.0,74,0.00,,,0.00,Wunderground v.1.15,2013-02-18 16:12:00,
2013-02-18 10:17:00,52.7,44.6,29.91,WNW,291,5.0,8.0,74,0.00,,,0.00,Wunderground v.1.15,2013-02-18 16:17:00,
2013-02-18 10:22:00,53.2,44.8,29.91,ESE,108,5.0,8.0,73,0.00,,,0.00,Wunderground v.1.15,2013-02-18 16:22:00,
2013-02-18 10:28:00,53.8,45.3,29.92,SSW,205,5.0,8.0,73,0.00,,,0.00,Wunderground v.1.15,2013-02-18 16:28:00,
2013-02-18 10:33:00,54.5,45.7,29.91,NNE,23,6.0,7.0,72,0.00,,,0.00,Wunderground v.1.15,2013-02-18 16:33:00,
2013-02-18 10:38:00,55.1,46.2,29.91,WSW,250,6.0,8.0,72,0.00,,,0.00,Wunderground v.1.15,2013-02-18 16:38:00,
2013-02-18 10:44:00,55.9,46.6,29.91,South,182,5.0,17.0,71,0.00,,,0.00,Wunderground v.1.15,2013-02-18 16:44:00,
2013-02-18 10:49:00,56.3,46.3,29.91,SSW,195,6.0,17.0,69,0.00,,,0.00,Wunderground v.1.15,2013-02-18 16:49:00,
2013-02-18 10:54:00,56.6,46.2,29.90,SW,221,6.0,12.0,68,0.00,,,0.00,Wunderground v.1.15,2013-02-18 16:54:00,
2013-02-18 10:59:00,56.6,46.5,29.89,SW,214,6.0,12.0,69,0.00,,,0.00,Wunderground v.1.15,2013-02-18 16:59:00,
2013-02-18 11:05:00,56.7,46.6,29.90,South,173,6.0,8.0,69,0.00,,,0.00,Wunderground v.1.15,2013-02-18 17:05:00,
2013-02-18 11:11:00,57.5,47.0,29.90,West,274,6.0,8.0,68,0.00,,,0.00,Wunderground v.1.15,2013-02-18 17:11:00,
2013-02-18 11:17:00,57.7,46.8,29.90,WSW,246,7.0,11.0,67,0.00,,,0.00,Wunderground v.1.15,2013-02-18 17:17:00,
2013-02-18 11:22:00,57.6,47.1,29.90,SSW,195,7.0,13.0,68,0.00,,,0.00,Wunderground v.1.15,2013-02-18 17:22:00,
2013-02-18 11:27:00,57.4,46.9,29.89,SSE,156,6.0,13.0,68,0.00,,,0.00,Wunderground v.1.15,2013-02-18 17:27:00,
2013-02-18 11:33:00,57.2,46.7,29.89,South,179,5.0,12.0,68,0.00,,,0.00,Wunderground v.1.15,2013-02-18 17:33:00,
2013-02-18 11:38:00,57.4,46.9,29.88,SE,128,5.0,12.0,68,0.00,,,0.00,Wunderground v.1.15,2013-02-18 17:38:00,
2013-02-18 11:44:00,57.2,46.7,29.88,South,176,5.0,9.0,68,0.00,,,0.00,Wunderground v.1.15,2013-02-18 17:44:00,
2013-02-18 11:49:00,57.0,46.5,29.88,South,174,5.0,10.0,68,0.00,,,0.00,Wunderground v.1.15,2013-02-18 17:49:00,
2013-02-18 11:55:00,57.1,46.6,29.88,SE,143,6.0,12.0,68,0.00,,,0.00,Wunderground v.1.15,2013-02-18 17:55:00,
2013-02-18 12:00:00,57.4,46.9,29.87,South,190,7.0,9.0,68,0.00,,,0.00,Wunderground v.1.15,2013-02-18 18:00:00,
2013-02-18 12:06:00,57.7,46.8,29.87,SSW,195,7.0,10.0,67,0.00,,,0.00,Wunderground v.1.15,2013-02-18 18:06:00,
2013-02-18 12:12:00,57.9,47.0,29.86,SE,125,7.0,7.0,67,0.00,,,0.00,Wunderground v.1.15,2013-02-18 18:12:00,
2013-02-18 12:17:00,58.0,47.1,29.85,SSE,148,5.0,16.0,67,0.00,,,0.00,Wunderground v.1.15,2013-02-18 18:17:00,
2013-02-18 12:23:00,57.8,47.7,29.85,SW,233,7.0,11.0,69,0.00,,,0.00,Wunderground v.1.15,2013-02-18 18:23:00,
2013-02-18 12:28:00,57.9,47.4,29.85,WSW,253,7.0,11.0,68,0.00,,,0.00,Wunderground v.1.15,2013-02-18 18:28:00,
2013-02-18 12:33:00,58.0,47.1,29.85,SSW,192,7.0,7.0,67,0.00,,,0.00,Wunderground v.1.15,2013-02-18 18:33:00,
2013-02-18 12:38:00,58.1,47.6,29.85,SSW,201,6.0,14.0,68,0.00,,,0.00,Wunderground v.1.15,2013-02-18 18:38:00,
2013-02-18 12:44:00,58.4,47.5,29.84,SW,224,5.0,15.0,67,0.00,,,0.00,Wunderground v.1.15,2013-02-18 18:44:00,
2013-02-18 12:49:00,58.6,46.9,29.84,WNW,302,6.0,15.0,65,0.00,,,0.00,Wunderground v.1.15,2013-02-18 18:49:00,
2013-02-18 12:54:00,58.8,46.6,29.84,SSW,203,6.0,9.0,64,0.00,,,0.00,Wunderground v.1.15,2013-02-18 18:54:00,
2013-02-18 12:59:00,58.7,46.1,29.83,SW,224,7.0,14.0,63,0.00,,,0.00,Wunderground v.1.15,2013-02-18 18:59:00,
2013-02-18 13:04:00,58.9,46.3,29.82,SW,217,7.0,16.0,63,0.00,,,0.00,Wunderground v.1.15,2013-02-18 19:04:00,
2013-02-18 13:10:00,59.3,45.8,29.82,South,181,7.0,9.0,61,0.00,,,0.00,Wunderground v.1.15,2013-02-18 19:10:00,
2013-02-18 13:16:00,59.4,45.1,29.81,West,267,7.0,12.0,59,0.00,,,0.00,Wunderground v.1.15,2013-02-18 19:16:00,
2013-02-18 13:21:00,59.3,44.5,29.81,WSW,240,8.0,8.0,58,0.00,,,0.00,Wunderground v.1.15,2013-02-18 19:21:00,
2013-02-18 13:26:00,59.0,45.1,29.81,SSE,167,7.0,10.0,60,0.00,,,0.00,Wunderground v.1.15,2013-02-18 19:26:00,
2013-02-18 13:32:00,58.7,44.4,29.80,SW,224,7.0,12.0,59,0.00,,,0.00,Wunderground v.1.15,2013-02-18 19:32:00,
2013-02-18 13:38:00,58.3,44.5,29.80,South,172,6.0,12.0,60,0.00,,,0.00,Wunderground v.1.15,2013-02-18 19:38:00,
2013-02-18 13:43:00,58.0,43.7,29.81,South,169,7.0,9.0,59,0.00,,,0.00,Wunderground v.1.15,2013-02-18 19:43:00,
2013-02-18 13:49:00,57.9,44.1,29.81,SE,132,8.0,15.0,60,0.00,,,0.00,Wunderground v.1.15,2013-02-18 19:49:00,
2013-02-18 13:54:00,57.7,43.9,29.81,NW,314,6.0,12.0,60,0.00,,,0.00,Wunderground v.1.15,2013-02-18 19:54:00,
2013-02-18 13:59:00,57.5,43.7,29.80,WSW,243,6.0,14.0,60,0.00,,,0.00,Wunderground v.1.15,2013-02-18 19:59:00,
2013-02-18 14:05:00,57.2,43.9,29.81,West,264,6.0,8.0,61,0.00,,,0.00,Wunderground v.1.15,2013-02-18 20:05:00,
2013-02-18 14:10:00,57.0,44.1,29.80,West,259,5.0,8.0,62,0.00,,,0.00,Wunderground v.1.15,2013-02-18 20:10:00,
2013-02-18 14:16:00,56.3,44.7,29.80,WSW,253,4.0,8.0,65,0.00,,,0.00,Wunderground v.1.15,2013-02-18 20:16:00,
2013-02-18 14:21:00,55.5,45.1,29.80,West,278,4.0,5.0,68,0.00,,,0.00,Wunderground v.1.15,2013-02-18 20:21:00,
2013-02-18 14:27:00,54.7,45.8,29.80,SW,229,5.0,8.0,72,0.00,,,0.01,Wunderground v.1.15,2013-02-18 20:27:00,
2013-02-18 14:32:00,54.3,45.8,29.79,SE,134,3.0,7.0,73,0.00,,,0.01,Wunderground v.1.15,2013-02-18 20:32:00,
2013-02-18 14:37:00,54.0,45.9,29.79,SE,134,3.0,7.0,74,0.00,,,0.01,Wunderground v.1.15,2013-02-18 20:37:00,
2013-02-18 14:43:00,53.6,45.5,29.79,SW,216,4.0,8.0,74,0.00,,,0.01,Wunderground v.1.15,2013-02-18 20:43:00,
2013-02-18 14:49:00,53.6,45.5,29.78,SSW,211,4.0,8.0,74,0.00,,,0.01,Wunderground v.1.15,2013-02-18 20:49:00,
2013-02-18 14:54:00,53.5,45.8,29.79,West,264,4.0,9.0,75,0.00,,,0.02,Wunderground v.1.15,2013-02-18 20:54:00,
2013-02-18 14:59:00,53.3,45.6,29.78,SSW,194,5.0,9.0,75,0.00,,,0.02,Wunderground v.1.15,2013-02-18 20:59:00,
2013-02-18 15:05:00,52.8,45.8,29.78,SSW,197,4.0,9.0,77,0.00,,,0.02,Wunderground v.1.15,2013-02-18 21:05:00,
2013-02-18 15:10:00,52.6,45.6,29.79,South,172,5.0,10.0,77,0.04,,,0.03,Wunderground v.1.15,2013-02-18 21:10:00,
2013-02-18 15:15:00,52.2,45.5,29.79,West,278,7.0,10.0,78,0.28,,,0.05,Wunderground v.1.15,2013-02-18 21:15:00,
2013-02-18 15:21:00,51.6,45.6,29.78,West,270,7.0,7.0,80,0.17,,,0.06,Wunderground v.1.15,2013-02-18 21:21:00,
2013-02-18 15:27:00,51.2,45.9,29.78,SE,125,5.0,12.0,82,0.19,,,0.08,Wunderground v.1.15,2013-02-18 21:27:00,
2013-02-18 15:33:00,50.9,45.9,29.77,SE,136,5.0,8.0,83,0.13,,,0.09,Wunderground v.1.15,2013-02-18 21:33:00,
2013-02-18 15:38:00,50.6,45.9,29.77,SW,222,6.0,8.0,84,0.07,,,0.09,Wunderground v.1.15,2013-02-18 21:38:00,
2013-02-18 15:44:00,50.2,45.6,29.77,WSW,257,5.0,9.0,84,0.04,,,0.09,Wunderground v.1.15,2013-02-18 21:44:00,
2013-02-18 15:49:00,50.0,45.7,29.76,South,176,4.0,9.0,85,0.00,,,0.09,Wunderground v.1.15,2013-02-18 21:49:00,
2013-02-18 15:54:00,49.9,45.9,29.76,SSE,154,4.0,7.0,86,0.00,,,0.10,Wunderground v.1.15,2013-02-18 21:54:00,
2013-02-18 16:00:00,49.8,45.5,29.75,SSE,148,5.0,5.0,85,0.00,,,0.10,Wunderground v.1.15,2013-02-18 22:00:00,
2013-02-18 16:06:00,49.7,45.7,29.75,ESE,117,4.0,6.0,86,0.04,,,0.11,Wunderground v.1.15,2013-02-18 22:06:00,
2013-02-18 16:11:00,49.5,45.8,29.75,SSE,149,3.0,7.0,87,0.13,,,0.12,Wunderground v.1.15,2013-02-18 22:11:00,
2013-02-18 16:16:00,49.3,45.9,29.75,SSW,195,3.0,7.0,88,0.12,,,0.13,Wunderground v.1.15,2013-02-18 22:16:00,
2013-02-18 16:22:00,49.1,46.0,29.75,NNW,338,3.0,3.0,89,0.08,,,0.13,Wunderground v.1.15,2013-02-18 22:22:00,
2013-02-18 16:27:00,49.1,46.0,29.74,SE,134,3.0,4.0,89,0.05,,,0.14,Wunderground v.1.15,2013-02-18 22:27:00,
2013-02-18 16:32:00,49.0,45.9,29.73,South,173,3.0,4.0,89,0.11,,,0.14,Wunderground v.1.15,2013-02-18 22:32:00,
2013-02-18 16:38:00,48.9,46.1,29.73,SW,217,2.0,5.0,90,0.10,,,0.15,Wunderground v.1.15,2013-02-18 22:38:00,
2013-02-18 16:43:00,48.8,46.0,29.73,ESE,112,3.0,7.0,90,0.07,,,0.16,Wunderground v.1.15,2013-02-18 22:43:00,
2013-02-18 16:49:00,48.9,46.1,29.72,ESE,117,4.0,7.0,90,0.07,,,0.16,Wunderground v.1.15,2013-02-18 22:49:00,
2013-02-18 16:54:00,48.9,46.1,29.71,WSW,248,3.0,10.0,90,0.05,,,0.16,Wunderground v.1.15,2013-02-18 22:54:00,
2013-02-18 16:59:00,49.0,46.2,29.71,ESE,113,2.0,10.0,90,0.04,,,0.17,Wunderground v.1.15,2013-02-18 22:59:00,
2013-02-18 17:05:00,48.9,46.1,29.70,SSW,195,3.0,4.0,90,0.04,,,0.17,Wunderground v.1.15,2013-02-18 23:05:00,
2013-02-18 17:11:00,49.0,46.2,29.70,ESE,102,3.0,7.0,90,0.04,,,0.17,Wunderground v.1.15,2013-02-18 23:11:00,
2013-02-18 17:16:00,49.2,46.1,29.70,ENE,70,4.0,16.0,89,0.00,,,0.17,Wunderground v.1.15,2013-02-18 23:16:00,
2013-02-18 17:22:00,49.7,46.3,29.70,WSW,239,4.0,6.0,88,0.00,,,0.17,Wunderground v.1.15,2013-02-18 23:22:00,
2013-02-18 17:27:00,50.0,46.0,29.69,ESE,108,5.0,12.0,86,0.00,,,0.17,Wunderground v.1.15,2013-02-18 23:27:00,
2013-02-18 17:32:00,50.2,46.2,29.69,ENE,72,5.0,6.0,86,0.00,,,0.17,Wunderground v.1.15,2013-02-18 23:32:00,
2013-02-18 17:38:00,50.1,46.4,29.68,SE,131,4.0,13.0,87,0.00,,,0.18,Wunderground v.1.15,2013-02-18 23:38:00,
2013-02-18 17:43:00,50.0,46.3,29.68,South,184,5.0,9.0,87,0.17,,,0.19,Wunderground v.1.15,2013-02-18 23:43:00,
2013-02-18 17:48:00,50.0,46.3,29.69,ESE,108,6.0,14.0,87,0.09,,,0.19,Wunderground v.1.15,2013-02-18 23:48:00,
2013-02-18 17:53:00,49.8,46.4,29.68,SW,236,6.0,13.0,88,0.06,,,0.20,Wunderground v.1.15,2013-02-18 23:53:00,
2013-02-18 17:59:00,49.6,46.5,29.68,WSW,245,5.0,13.0,89,0.09,,,0.21,Wunderground v.1.15,2013-02-18 23:59:00,
2013-02-18 18:04:00,49.4,46.3,29.69,West,274,6.0,10.0,89,0.10,,,0.22,Wunderground v.1.15,2013-02-19 00:04:00,
2013-02-18 18:10:00,49.3,46.5,29.69,South,190,7.0,9.0,90,0.24,,,0.24,Wunderground v.1.15,2013-02-19 00:10:00,
2013-02-18 18:15:00,49.1,46.6,29.68,SSE,162,6.0,13.0,91,0.20,,,0.25,Wunderground v.1.15,2013-02-19 00:15:00,
2013-02-18 18:20:00,49.0,46.5,29.68,East,83,7.0,12.0,91,0.14,,,0.26,Wunderground v.1.15,2013-02-19 00:20:00,
2013-02-18 18:26:00,48.9,46.7,29.68,SSE,149,7.0,12.0,92,0.10,,,0.27,Wunderground v.1.15,2013-02-19 00:26:00,
2013-02-18 18:31:00,48.9,46.7,29.67,SSW,211,6.0,6.0,92,0.07,,,0.27,Wunderground v.1.15,2013-02-19 00:31:00,
2013-02-18 18:36:00,48.8,46.6,29.67,ESE,114,6.0,12.0,92,0.04,,,0.27,Wunderground v.1.15,2013-02-19 00:36:00,
2013-02-18 18:42:00,48.7,46.5,29.67,ESE,123,5.0,8.0,92,0.00,,,0.27,Wunderground v.1.15,2013-02-19 00:42:00,
2013-02-18 18:47:00,48.7,46.5,29.66,NE,56,6.0,11.0,92,0.00,,,0.28,Wunderground v.1.15,2013-02-19 00:47:00,
2013-02-18 18:52:00,48.8,46.6,29.66,NE,44,6.0,6.0,92,0.09,,,0.29,Wunderground v.1.15,2013-02-19 00:52:00,
2013-02-18 18:57:00,48.8,46.6,29.66,SSE,158,6.0,7.0,92,0.13,,,0.30,Wunderground v.1.15,2013-02-19 00:57:00,
2013-02-18 19:03:00,48.8,46.6,29.66,NW,318,5.0,7.0,92,0.07,,,0.30,Wunderground v.1.15,2013-02-19 01:03:00,
2013-02-18 19:09:00,48.8,46.6,29.64,SE,133,6.0,11.0,92,0.04,,,0.30,Wunderground v.1.15,2013-02-19 01:09:00,
2013-02-18 19:15:00,48.9,46.7,29.64,West,276,7.0,12.0,92,0.00,,,0.31,Wunderground v.1.15,2013-02-19 01:15:00,
2013-02-18 19:20:00,48.9,46.7,29.63,SSW,207,7.0,7.0,92,0.00,,,0.31,Wunderground v.1.15,2013-02-19 01:20:00,
2013-02-18 19:25:00,48.9,46.7,29.64,WNW,303,6.0,9.0,92,0.00,,,0.31,Wunderground v.1.15,2013-02-19 01:25:00,
2013-02-18 19:30:00,49.0,46.8,29.66,SSW,210,6.0,13.0,92,0.00,,,0.31,Wunderground v.1.15,2013-02-19 01:30:00,
2013-02-18 19:36:00,49.0,46.8,29.65,South,179,5.0,13.0,92,0.25,,,0.33,Wunderground v.1.15,2013-02-19 01:36:00,
2013-02-18 19:41:00,49.0,46.8,29.66,SSW,208,5.0,6.0,92,0.24,,,0.35,Wunderground v.1.15,2013-02-19 01:41:00,
2013-02-18 19:47:00,49.0,47.1,29.66,SSE,149,6.0,12.0,93,0.31,,,0.38,Wunderground v.1.15,2013-02-19 01:47:00,
2013-02-18 19:53:00,49.1,47.2,29.66,SW,231,7.0,15.0,93,0.35,,,0.41,Wunderground v.1.15,2013-02-19 01:53:00,
2013-02-18 19:59:00,49.1,47.2,29.66,WSW,256,7.0,15.0,93,0.24,,,0.43,Wunderground v.1.15,2013-02-19 01:59:00,
2013-02-18 20:05:00,49.0,47.1,29.67,SSW,208,6.0,10.0,93,0.27,,,0.45,Wunderground v.1.15,2013-02-19 02:05:00,
2013-02-18 20:10:00,49.0,47.1,29.66,SSE,160,5.0,6.0,93,0.27,,,0.47,Wunderground v.1.15,2013-02-19 02:10:00,
2013-02-18 20:15:00,48.9,47.0,29.65,ESE,117,5.0,11.0,93,0.15,,,0.48,Wunderground v.1.15,2013-02-19 02:15:00,
2013-02-18 20:21:00,48.9,47.0,29.64,WNW,284,5.0,5.0,93,0.11,,,0.49,Wunderground v.1.15,2013-02-19 02:21:00,
2013-02-18 20:26:00,48.8,47.2,29.64,SSE,155,4.0,9.0,94,0.07,,,0.49,Wunderground v.1.15,2013-02-19 02:26:00,
2013-02-18 20:32:00,48.8,47.2,29.63,SE,144,5.0,8.0,94,0.04,,,0.49,Wunderground v.1.15,2013-02-19 02:32:00,
2013-02-18 20:38:00,48.8,47.2,29.63,ESE,122,5.0,9.0,94,0.00,,,0.49,Wunderground v.1.15,2013-02-19 02:38:00,
2013-02-18 20:43:00,48.9,47.2,29.63,SSW,207,5.0,7.0,94,0.00,,,0.49,Wunderground v.1.15,2013-02-19 02:43:00,
2013-02-18 20:49:00,48.9,47.2,29.62,SSE,150,5.0,9.0,94,0.00,,,0.49,Wunderground v.1.15,2013-02-19 02:49:00,
2013-02-18 20:54:00,49.0,47.3,29.62,SE,140,5.0,14.0,94,0.00,,,0.49,Wunderground v.1.15,2013-02-19 02:54:00,
2013-02-18 21:00:00,49.0,47.3,29.61,SW,235,6.0,7.0,94,0.00,,,0.49,Wunderground v.1.15,2013-02-19 03:00:00,
2013-02-18 21:06:00,49.1,47.4,29.61,ESE,120,6.0,7.0,94,0.00,,,0.49,Wunderground v.1.15,2013-02-19 03:06:00,
2013-02-18 21:12:00,49.1,47.2,29.61,South,187,5.0,8.0,93,0.00,,,0.49,Wunderground v.1.15,2013-02-19 03:12:00,
2013-02-18 21:17:00,49.2,47.3,29.62,SSE,167,4.0,11.0,93,0.00,,,0.49,Wunderground v.1.15,2013-02-19 03:17:00,
2013-02-18 21:23:00,49.3,47.4,29.63,SW,217,5.0,7.0,93,0.00,,,0.49,Wunderground v.1.15,2013-02-19 03:23:00,
2013-02-18 21:28:00,49.4,47.5,29.63,SW,225,5.0,14.0,93,0.00,,,0.49,Wunderground v.1.15,2013-02-19 03:28:00,
2013-02-18 21:33:00,49.6,47.4,29.63,SW,235,4.0,17.0,92,0.00,,,0.49,Wunderground v.1.15,2013-02-19 03:33:00,
2013-02-18 21:39:00,49.8,47.6,29.64,SW,228,5.0,17.0,92,0.00,,,0.49,Wunderground v.1.15,2013-02-19 03:39:00,
2013-02-18 21:44:00,50.0,47.5,29.64,West,259,5.0,11.0,91,0.00,,,0.49,Wunderground v.1.15,2013-02-19 03:44:00,
2013-02-18 21:50:00,50.4,47.9,29.65,West,260,6.0,6.0,91,0.00,,,0.49,Wunderground v.1.15,2013-02-19 03:50:00,
2013-02-18 21:55:00,50.6,48.1,29.65,WNW,283,7.0,11.0,91,0.00,,,0.50,Wunderground v.1.15,2013-02-19 03:55:00,
2013-02-18 22:01:00,48.8,44.8,29.68,WNW,295,13.0,28.0,86,0.15,,,0.51,Wunderground v.1.15,2013-02-19 04:01:00,
2013-02-18 22:06:00,46.0,42.9,29.68,WNW,287,21.0,28.0,89,0.07,,,0.51,Wunderground v.1.15,2013-02-19 04:06:00,
2013-02-18 22:12:00,44.6,42.1,29.71,WNW,298,23.0,23.0,91,0.04,,,0.51,Wunderground v.1.15,2013-02-19 04:12:00,
2013-02-18 22:17:00,43.1,40.1,29.72,NW,309,22.0,26.0,89,0.00,,,0.51,Wunderground v.1.15,2013-02-19 04:17:00,
2013-02-18 22:23:00,41.9,39.5,29.73,WNW,298,21.0,24.0,91,0.00,,,0.51,Wunderground v.1.15,2013-02-19 04:23:00,
2013-02-18 22:29:00,41.3,39.2,29.73,NW,312,17.0,24.0,92,0.00,,,0.51,Wunderground v.1.15,2013-02-19 04:29:00,
2013-02-18 22:34:00,40.9,38.8,29.74,NW,307,16.0,21.0,92,0.00,,,0.51,Wunderground v.1.15,2013-02-19 04:34:00,
2013-02-18 22:39:00,40.8,38.4,29.75,WNW,297,15.0,21.0,91,0.00,,,0.51,Wunderground v.1.15,2013-02-19 04:39:00,
2013-02-18 22:45:00,40.8,38.7,29.75,NW,307,13.0,15.0,92,0.00,,,0.51,Wunderground v.1.15,2013-02-19 04:45:00,
2013-02-18 22:51:00,40.7,38.3,29.75,NW,319,12.0,16.0,91,0.00,,,0.51,Wunderground v.1.15,2013-02-19 04:51:00,
2013-02-18 22:56:00,40.6,37.6,29.76,NW,315,13.0,16.0,89,0.00,,,0.51,Wunderground v.1.15,2013-02-19 04:56:00,
2013-02-18 23:00:00,40.6,37.6,29.76,WNW,301,13.0,13.0,89,0.00,,,0.51,Wunderground v.1.15,2013-02-19 05:00:00,
2013-02-18 23:01:00,40.6,37.6,29.76,NW,304,13.0,13.0,89,0.00,,,0.51,Wunderground v.1.15,2013-02-19 05:01:00,
2013-02-18 23:07:00,40.5,37.5,29.77,WNW,286,12.0,16.0,89,0.00,,,0.51,Wunderground v.1.15,2013-02-19 05:07:00,
2013-02-18 23:12:00,40.5,37.2,29.77,WNW,301,13.0,15.0,88,0.00,,,0.51,Wunderground v.1.15,2013-02-19 05:12:00,
2013-02-18 23:18:00,40.4,36.8,29.78,WNW,285,15.0,16.0,87,0.00,,,0.51,Wunderground v.1.15,2013-02-19 05:18:00,
2013-02-18 23:19:00,40.4,37.1,29.78,NW,316,15.0,16.0,88,0.00,,,0.51,Wunderground v.1.15,2013-02-19 05:19:00,
2013-02-18 23:25:00,40.3,36.7,29.78,WNW,292,15.0,16.0,87,0.00,,,0.51,Wunderground v.1.15,2013-02-19 05:25:00,
2013-02-18 23:30:00,40.1,36.5,29.79,WNW,295,14.0,14.0,87,0.00,,,0.51,Wunderground v.1.15,2013-02-19 05:30:00,
2013-02-18 23:35:00,40.0,36.7,29.80,WNW,286,14.0,17.0,88,0.00,,,0.51,Wunderground v.1.15,2013-02-19 05:35:00,
2013-02-18 23:40:00,39.9,36.6,29.80,WNW,298,14.0,14.0,88,0.00,,,0.51,Wunderground v.1.15,2013-02-19 05:40:00,
2013-02-18 23:46:00,39.8,36.2,29.81,WNW,291,15.0,17.0,87,0.00,,,0.51,Wunderground v.1.15,2013-02-19 05:46:00,
2013-02-18 23:51:00,39.7,36.1,29.81,WNW,293,16.0,16.0,87,0.00,,,0.51,Wunderground v.1.15,2013-02-19 05:51:00,
2013-02-18 23:57:00,39.4,36.1,29.81,WNW,294,16.0,22.0,88,0.00,,,0.51,Wunderground v.1.15,2013-02-19 05:57:00,